Terug naar catalogus

GEESAT 1-03

ActiefWetenschapLEO
NORAD 52787·PAYLOAD·🇨🇳 China

Gelanceerd Jun 2, 2022 vanaf Xichang Satellite Launch Center

Loading…

Volgende Passages (komende 24 uur)

TLE

VersSource: Space-Track

Epoch: Sep 14, 2026, 21:00 UTC

1 52787U 22058C   26257.87508239  .00001268  00000-0  18774-3 0  9997
2 52787  49.9868 147.0589 0008150  86.1140 274.0729 14.81605422233230

Volg GEESAT 1-03 in realtime met AllMySat

Download on the App Store